Theta_e
314 313 313 312 312 312 313 312 312 311 311 311 311 311 310 311 311 310 310 310 310 310 310 310 311 313 316 319 319 317 318 320 322 323 323 324 326 327 328 328 328 328 328 328 330 331 330 330 329 329 330 331 330 329 330 331 330 329 330 330 329 329 328 328 329 329 328 328 328 328 328 327 326 326 326 324 323 322 321 321 320 318 314 308 306
313 312 312 312 312 311 311 311 310 310 310 310 310 309 309 309 309 309 308 308 308 307 307 307 308 309 312 314 313 312 312 314 315 317 317 319 321 324 326 328 328 329 328 328 329 330 330 330 330 329 330 331 332 332 331 331 330 329 329 330 329 328 328 328 328 328 328 328 328 328 328 326 324 324 325 324 322 321 320 320 319 317 314 309 306
312 311 311 311 310 310 310 310 310 310 310 310 309 308 307 308 308 307 307 306 306 305 305 305 306 307 308 310 309 308 309 310 312 312 313 315 317 320 323 326 327 328 328 328 328 329 329 330 330 330 330 332 332 332 331 330 330 330 330 330 330 329 329 329 328 328 328 327 327 327 327 326 324 323 324 324 322 321 320 319 318 316 311 307 305
311 311 311 310 309 309 309 309 309 309 309 309 308 308 307 307 307 306 306 305 305 305 304 304 304 304 305 306 306 305 305 307 308 308 309 310 312 315 319 321 324 326 327 328 328 329 330 330 331 331 330 331 331 331 331 330 331 331 331 331 330 330 329 329 328 328 328 327 327 327 327 326 325 323 322 323 322 321 320 318 317 314 310 306 306
310 310 310 310 309 309 309 309 309 309 309 308 308 307 307 307 307 306 305 305 305 304 304 303 303 303 303 304 305 303 301 301 302 304 305 306 309 312 315 317 320 323 326 327 328 328 329 330 330 330 330 329 329 329 330 330 331 332 332 331 330 329 329 328 328 328 329 327 327 327 327 326 326 323 320 320 321 319 318 317 316 315 313 313 313
309 309 309 309 308 308 308 308 307 307 307 307 307 307 307 307 307 306 305 305 305 304 304 303 303 303 302 302 303 302 299 299 299 300 301 304 306 309 312 315 318 320 323 326 327 328 329 329 328 328 329 328 328 328 329 329 329 330 330 329 328 329 329 328 327 327 328 327 326 327 326 326 327 324 320 319 320 317 314 316 318 318 319 321 320
308 308 308 308 308 307 307 307 306 306 306 306 306 306 306 306 307 307 306 305 305 304 304 303 303 302 302 301 302 301 299 298 298 298 299 300 302 305 308 312 315 318 320 323 326 328 328 328 328 327 328 328 328 328 328 327 327 328 328 328 329 329 328 328 327 327 327 327 326 326 326 326 326 325 321 319 318 316 314 315 318 319 319 320 320
308 308 307 307 307 307 307 306 306 305 305 305 305 305 305 305 305 306 306 306 305 305 304 303 303 302 301 301 301 300 299 298 298 298 298 299 300 303 306 308 312 316 319 321 324 326 327 327 327 327 327 327 328 328 328 327 328 328 328 329 330 329 327 327 327 326 327 327 326 326 326 325 326 325 323 319 316 315 314 315 317 318 318 318 318
307 306 306 307 307 306 306 306 305 305 305 304 304 304 304 304 304 304 304 304 304 305 304 304 303 302 301 301 301 300 298 297 297 297 297 297 298 301 305 307 310 313 316 319 321 325 327 327 327 327 327 327 327 327 328 328 328 328 328 327 329 330 328 326 327 327 326 327 326 325 325 325 325 325 324 320 317 315 314 314 316 317 318 318 318
305 305 305 306 306 305 305 305 304 304 304 304 303 303 303 303 303 303 303 303 303 303 303 303 303 302 301 300 301 300 298 297 297 297 297 297 298 301 305 307 309 311 312 315 319 322 324 326 327 327 327 327 327 326 327 327 327 327 326 326 328 329 327 325 326 326 326 326 326 325 325 324 324 325 324 320 318 318 316 313 314 316 317 317 317
304 304 304 304 305 305 304 304 304 304 304 303 303 303 302 303 303 303 302 302 302 302 302 302 302 301 300 300 300 300 298 297 297 297 298 298 298 300 302 304 307 309 310 313 317 320 321 324 326 326 326 327 328 327 327 327 327 327 326 326 327 328 327 326 325 325 326 326 326 325 325 324 324 324 324 322 321 321 319 315 313 312 314 316 315
304 303 304 304 304 304 304 304 303 303 303 303 303 302 302 302 303 303 302 302 302 301 301 300 300 300 300 299 299 299 298 297 297 297 298 299 299 299 300 302 305 307 310 313 316 318 320 321 323 325 326 327 328 328 328 328 328 328 327 326 327 328 328 327 326 326 325 325 325 325 325 326 325 324 324 323 323 322 320 317 315 311 312 314 314
303 303 303 303 303 303 303 303 303 301 300 301 302 302 302 302 302 302 302 301 301 301 300 300 300 300 299 299 298 298 297 297 297 297 297 298 299 298 299 300 302 304 307 311 313 315 318 320 322 324 325 326 326 326 327 327 327 328 327 327 327 328 328 327 327 327 326 325 325 326 326 326 326 325 324 324 323 322 321 319 316 313 311 312 313
303 302 302 302 302 302 302 302 301 299 298 299 300 301 301 301 302 302 302 301 301 300 300 300 300 299 299 299 298 297 297 296 297 297 297 298 298 298 298 298 299 301 304 306 308 309 311 314 318 321 324 325 325 325 326 326 326 326 326 327 327 327 328 328 328 327 326 325 325 326 326 326 326 326 325 324 323 322 321 319 317 315 313 312 312
302 302 301 301 301 301 301 301 300 299 298 298 298 299 300 300 301 301 302 301 300 300 300 300 300 299 299 298 298 297 297 296 297 297 298 298 297 297 297 297 298 299 300 302 303 304 304 307 311 316 320 323 325 325 326 326 326 325 324 325 326 327 326 327 328 327 327 326 325 326 327 327 327 327 325 323 323 323 322 320 318 316 314 313 313
302 301 301 301 300 300 300 300 300 299 298 298 298 298 299 299 300 301 301 301 300 300 300 300 299 299 299 298 298 297 296 296 296 297 297 298 297 297 296 297 298 298 298 299 300 300 301 302 305 310 314 318 321 323 324 325 326 325 324 324 325 326 326 327 327 327 327 326 326 327 327 327 327 327 325 323 322 323 323 320 318 316 315 316 317
302 301 301 300 300 300 300 300 300 299 298 298 297 297 298 299 299 299 299 300 300 300 300 299 299 299 299 298 298 297 296 296 296 296 297 297 297 297 296 297 297 297 297 297 298 298 299 300 302 305 309 312 317 320 322 324 325 326 325 324 324 325 326 327 327 327 327 327 327 327 327 326 327 327 326 324 323 324 324 322 320 318 317 319 320
301 301 301 300 300 299 299 300 300 299 298 298 297 297 297 298 298 298 298 298 299 299 299 298 298 298 298 298 298 297 297 296 296 296 296 296 296 296 296 296 297 297 297 297 296 297 297 298 300 302 305 307 312 317 320 322 324 325 325 324 323 323 325 326 326 326 327 327 327 327 326 326 326 326 326 325 324 324 324 322 322 322 320 320 321
301 301 301 300 299 299 299 299 300 299 298 297 297 297 297 297 297 297 297 297 297 298 298 297 297 297 297 297 297 297 296 296 296 296 295 295 295 296 295 295 296 297 296 296 296 296 296 297 299 300 302 305 309 314 317 319 321 324 325 324 323 323 324 325 325 325 326 326 326 326 326 326 326 326 325 325 325 325 323 322 322 323 322 321 321
301 301 301 300 299 299 299 299 299 299 298 297 297 297 297 297 297 296 296 296 296 297 297 296 296 297 297 296 296 296 296 296 296 296 296 295 295 295 295 294 295 296 296 295 295 295 295 296 297 299 301 303 305 309 314 316 319 321 323 323 324 324 324 324 324 324 324 324 325 325 325 325 325 326 326 326 326 325 324 324 323 323 322 321 320
300 300 301 300 300 299 299 299 299 299 299 297 297 297 297 297 297 296 296 295 295 296 296 296 296 296 296 296 295 295 295 295 295 296 296 295 295 295 294 294 294 295 295 294 294 294 294 295 296 297 300 301 303 305 309 312 316 318 320 321 323 323 324 323 322 321 321 321 322 322 323 323 322 323 324 324 325 325 324 324 324 324 324 321 320
300 300 300 300 300 299 299 299 299 299 299 298 297 297 296 297 297 296 296 295 295 295 295 295 296 295 295 294 295 294 294 294 295 296 296 296 296 295 294 294 294 294 294 294 293 293 293 294 295 296 298 300 301 302 304 307 311 313 316 320 322 323 323 321 319 318 318 318 318 316 316 316 317 318 320 321 321 322 323 323 323 323 323 322 320
300 300 300 300 300 300 300 299 299 299 299 299 297 297 296 296 296 296 296 295 295 294 294 294 295 295 294 294 294 294 294 294 295 296 296 296 296 295 295 294 294 294 293 293 293 293 293 293 294 296 298 298 298 300 301 303 305 307 312 318 321 321 320 318 317 316 315 314 312 310 309 310 311 313 314 315 317 318 320 321 321 320 320 320 319
300 300 300 299 300 300 300 299 299 299 299 299 298 297 297 296 296 295 295 295 294 294 294 294 294 294 294 293 293 294 294 294 294 295 296 296 296 296 295 295 294 294 293 293 293 292 292 293 295 296 297 297 297 298 299 299 301 303 307 312 316 318 317 316 316 315 312 310 308 307 306 307 308 308 309 311 313 314 316 316 316 316 316 315 315
300 300 300 299 299 300 300 299 299 299 298 298 298 298 297 296 296 295 295 294 294 293 293 293 293 294 293 293 293 293 293 294 294 295 296 296 297 296 296 295 295 294 294 293 293 293 293 293 295 296 296 296 296 297 297 297 298 299 301 304 308 309 310 311 312 311 308 306 305 304 304 305 305 305 306 307 309 311 311 311 311 311 312 311 310
300 299 300 300 299 299 300 300 299 299 298 298 298 298 297 296 296 295 294 294 293 293 293 293 293 293 293 293 293 293 293 293 293 294 295 296 296 296 296 295 295 294 294 294 293 293 293 293 294 294 295 295 294 294 294 295 297 297 297 298 299 301 302 303 304 304 303 302 302 302 302 303 303 303 304 304 305 305 306 306 306 306 307 307 306
299 299 299 300 299 300 300 300 300 299 299 298 298 298 298 297 296 295 294 294 293 293 293 293 293 293 293 293 293 292 293 292 293 294 294 295 296 297 296 295 295 294 294 294 293 293 293 293 293 294 294 295 294 294 294 294 295 295 295 295 295 296 297 298 298 299 299 299 300 301 301 302 302 302 303 303 302 301 302 303 303 303 304 305 304
300 300 300 300 299 299 299 300 300 299 299 299 298 298 298 297 296 295 294 294 294 293 293 293 293 293 292 293 292 292 292 292 293 294 294 294 295 296 296 295 295 294 294 293 293 292 292 293 293 293 293 294 293 293 293 293 293 294 294 295 295 295 295 296 296 296 297 298 299 300 300 301 301 301 301 301 300 300 300 301 301 301 302 303 302
300 300 300 300 300 299 299 299 299 299 299 299 299 298 298 297 297 295 295 294 294 293 293 293 293 293 293 293 293 292 292 292 293 294 295 295 296 297 296 296 295 295 294 293 293 292 292 292 292 292 292 291 291 291 291 292 292 293 293 293 294 295 296 295 294 294 295 296 297 297 298 299 299 300 300 300 299 299 299 300 300 300 301 301 300
299 300 300 300 300 300 299 299 299 299 299 299 299 299 298 297 297 296 295 295 294 294 293 293 293 293 293 293 293 292 292 293 294 295 295 296 297 297 296 296 296 295 294 294 293 292 292 291 291 291 291 291 291 291 291 291 291 291 292 292 293 293 294 295 295 295 295 295 295 296 296 297 298 298 299 299 299 299 299 299 300 300 300 300 299
299 299 299 299 300 300 299 299 298 298 298 298 298 298 298 298 297 297 296 295 295 294 294 294 293 293 293 293 293 292 292 293 294 294 295 295 296 296 296 296 296 295 295 294 293 293 292 291 291 291 291 291 291 291 291 291 291 290 291 291 291 292 292 293 294 295 295 295 296 296 296 296 296 297 297 298 298 299 299 298 298 299 299 299 299
299 299 298 298 299 300 299 298 298 298 298 298 298 297 297 297 297 297 296 296 295 295 294 294 294 294 294 293 293 292 292 293 294 294 295 295 295 295 296 295 296 295 295 294 294 293 293 292 292 291 291 291 291 291 291 291 291 291 291 291 291 291 291 291 292 293 294 294 294 295 295 295 295 296 296 297 297 297 298 298 298 298 298 298 298
299 298 297 297 298 300 299 298 298 298 298 298 298 297 297 297 297 296 296 296 296 295 295 294 294 294 294 294 293 293 292 292 293 293 294 294 294 295 295 295 295 295 295 294 294 294 293 293 292 292 291 291 291 291 291 291 291 291 291 291 291 291 291 292 292 293 293 293 293 293 293 294 294 294 294 295 295 296 296 297 297 297 297 298 298
299 298 296 296 298 300 299 298 298 298 298 298 298 297 297 297 296 296 296 296 296 295 295 294 294 294 294 294 294 293 292 292 292 293 293 294 294 294 294 294 295 295 295 294 294 294 294 293 292 292 291 291 291 291 291 291 291 292 292 292 292 292 292 292 292 292 293 293 293 293 293 293 293 294 294 294 294 295 295 296 296 297 297 297 297
300 298 296 297 299 299 298 298 298 297 298 298 297 297 297 297 296 296 296 296 296 295 295 294 294 294 294 294 294 293 293 292 292 292 293 293 293 294 293 293 293 294 294 294 294 294 294 293 292 292 291 292 292 291 291 291 291 292 292 292 292 292 292 292 292 292 292 292 292 293 293 293 293 293 293 294 294 294 295 295 296 296 297 297 297
300 298 297 297 299 299 298 298 298 297 297 297 297 297 297 297 297 296 296 295 295 295 295 295 294 294 294 294 294 293 293 293 293 292 292 293 293 293 293 293 293 293 293 293 294 294 294 293 293 292 292 292 292 292 292 292 292 292 292 292 292 292 292 292 292 292 292 293 292 292 293 292 293 293 293 293 294 294 294 295 295 296 296 297 296
299 298 297 298 298 298 298 298 297 297 297 297 297 297 297 297 297 296 296 295 295 295 295 295 295 294 294 294 293 293 293 293 293 293 292 293 293 293 293 293 293 293 293 293 293 293 293 293 293 293 293 293 293 292 292 292 292 292 292 292 292 292 292 292 292 292 292 292 292 293 293 292 292 293 293 293 293 294 294 294 295 295 296 296 296
299 298 298 297 297 298 298 297 297 297 297 297 297 297 297 297 297 296 296 296 295 295 295 295 295 294 294 294 293 293 293 293 293 293 293 293 293 293 293 293 293 292 292 293 293 293 293 293 293 293 293 293 293 292 292 292 292 292 292 292 292 292 292 292 292 292 292 292 292 292 293 293 292 293 293 293 293 293 294 294 294 294 295 296 296
299 300 299 298 297 298 297 297 297 297 297 297 297 297 297 297 297 296 296 296 295 295 295 295 295 295 294 294 294 293 293 293 293 293 293 292 292 292 293 293 293 292 292 292 292 292 292 293 293 292 292 292 292 292 292 292 292 292 292 292 291 292 292 291 291 292 292 292 292 292 292 293 293 292 293 293 293 293 294 294 294 294 295 295 295
299 300 299 298 298 298 297 297 296 296 296 297 297 297 297 297 297 297 296 295 295 295 295 295 295 295 295 294 294 293 293 293 293 293 292 292 292 292 292 293 292 292 292 292 292 292 292 292 292 292 292 292 292 292 292 292 292 292 292 291 291 292 291 291 291 291 292 292 292 292 292 292 292 292 292 293 293 293 293 293 294 294 295 295 295
299 299 299 298 298 297 297 296 296 296 296 296 296 297 297 297 297 296 296 296 295 295 295 295 295 295 295 295 294 294 293 293 293 293 293 292 292 292 292 292 292 292 292 292 292 292 292 292 292 292 292 292 292 292 292 292 292 292 292 291 291 291 291 291 291 291 292 292 292 292 292 292 292 292 292 292 292 292 293 293 293 294 294 295 295
298 298 298 298 297 297 297 296 296 296 296 296 296 296 297 297 297 296 297 296 296 296 296 295 295 296 295 295 294 294 294 293 293 293 293 292 292 292 292 292 292 292 292 292 292 292 292 292 292 292 292 292 292 292 292 292 292 292 291 291 291 291 291 291 291 291 291 291 291 291 291 291 291 291 291 292 292 292 292 292 293 293 294 294 294
298 298 298 297 297 297 297 296 296 296 296 296 296 296 297 297 297 296 297 297 296 296 296 296 295 295 295 295 295 294 294 294 293 293 293 292 292 292 291 291 292 292 292 291 292 292 292 292 292 292 292 292 292 292 292 292 292 292 291 291 291 291 291 291 291 291 291 291 291 291 291 291 291 291 291 291 291 291 292 292 293 293 293 293 293
298 298 297 297 297 297 297 296 296 296 296 296 296 296 296 296 296 296 296 296 296 296 296 296 295 295 295 295 295 295 294 294 293 293 293 292 292 292 291 291 291 291 291 291 291 291 292 292 292 291 291 291 291 291 292 292 292 292 291 291 291 291 291 291 291 290 290 290 290 290 290 290 291 291 291 291 291 291 291 291 292 292 292 292 293
298 298 297 296 296 297 297 296 296 296 296 296 296 296 296 296 296 296 296 296 296 296 296 296 295 295 295 295 295 295 295 294 294 293 292 292 292 292 292 291 291 292 291 290 291 291 292 292 292 291 291 291 291 291 291 291 291 291 291 291 291 291 291 291 291 290 290 290 290 290 290 290 290 290 290 290 290 290 290 290 290 291 291 291 292
298 298 297 296 296 296 296 296 296 296 296 295 295 295 295 296 296 296 296 296 296 296 296 296 295 295 295 295 295 295 294 294 294 293 293 292 292 292 292 292 291 291 291 291 291 291 291 291 291 291 290 290 290 290 291 291 291 291 291 291 291 291 291 291 291 291 290 290 289 289 289 289 289 289 289 289 289 289 289 289 289 290 291 291 291
298 297 296 296 296 296 296 296 296 296 296 295 295 295 295 296 296 296 296 296 295 295 296 295 295 295 295 295 295 295 294 294 294 294 293 293 293 293 292 292 292 291 291 291 291 291 291 291 290 290 290 289 289 290 290 290 290 290 290 290 290 290 290 290 291 291 290 290 289 289 289 289 289 288 288 288 288 288 288 288 289 289 290 291 291
296 296 296 296 296 296 296 296 296 296 295 295 295 295 295 295 295 295 295 295 295 295 295 295 295 295 295 295 295 295 294 294 294 294 294 293 293 293 293 293 292 291 291 291 291 291 291 291 290 290 290 289 289 289 290 290 290 289 289 289 289 289 289 290 290 290 290 290 289 289 289 289 288 288 288 287 287 288 287 287 288 289 289 290 291
296 295 296 296 296 296 296 296 296 296 295 295 295 295 295 295 295 295 295 295 295 294 295 295 295 295 295 295 295 295 294 294 294 294 294 294 293 293 293 293 292 292 292 291 291 291 291 291 291 290 290 289 289 289 289 290 289 289 288 288 288 289 289 289 290 290 290 290 289 289 289 289 288 288 288 287 287 287 287 287 287 288 288 289 290
296 296 296 296 296 296 296 296 296 295 295 295 295 295 295 295 295 295 295 295 294 294 294 295 295 295 295 295 295 295 294 294 294 294 294 294 294 293 293 293 293 292 292 292 291 291 291 291 291 290 290 289 289 289 290 289 289 288 287 287 288 288 289 289 289 289 289 289 289 289 289 289 289 288 288 287 287 287 287 287 287 287 288 288 289
296 296 296 296 296 296 296 296 296 295 295 295 295 295 295 295 295 295 295 294 294 294 294 294 294 294 294 294 295 295 294 294 294 294 294 294 293 293 293 293 293 292 292 292 291 291 291 291 291 290 290 290 290 290 290 289 289 288 287 287 287 288 288 288 289 289 289 289 289 289 289 289 289 288 287 287 287 287 287 287 287 287 288 288 289
Wind_Speed
22 22 23 23 22 24 25 25 26 27 27 27 27 27 27 25 24 25 25 24 25 25 25 25 26 25 24 25 26 26 27 25 22 21 21 22 22 22 24 25 26 27 28 28 26 26 25 24 26 30 30 31 33 33 33 32 32 33 32 30 29 28 27 23 14 10 14 20 23 23 22 23 29 37 37 36 38 38 35 32 30 29 30 30 31
22 22 22 23 23 25 26 26 27 27 27 28 28 29 29 26 25 26 27 26 26 27 28 28 27 27 25 25 26 29 31 29 26 24 23 23 22 22 23 25 27 27 27 28 27 27 27 26 27 29 29 30 33 34 34 33 32 32 31 28 28 30 31 28 19 12 12 16 20 24 24 20 24 34 38 38 40 39 36 34 32 30 30 31 32
22 21 21 23 24 25 26 26 26 27 28 28 28 30 29 26 26 27 28 28 28 29 31 30 29 29 28 27 29 34 35 33 31 30 28 27 25 23 21 22 25 27 27 27 28 28 28 28 28 29 30 30 32 33 32 32 32 32 32 30 29 30 32 32 25 18 16 17 18 22 26 24 24 31 38 38 39 39 36 35 33 31 31 32 32
22 22 21 23 24 24 26 26 26 27 27 28 27 29 29 27 26 27 28 28 29 31 31 32 32 33 32 29 31 37 39 37 37 35 33 32 29 26 24 22 23 25 26 28 28 26 27 27 28 30 33 34 32 31 30 31 32 32 31 31 31 30 30 33 31 24 20 19 21 24 28 29 26 30 37 38 37 38 36 34 33 31 32 32 32
23 22 21 23 25 26 27 28 28 28 27 27 27 27 27 27 26 27 28 28 29 31 31 32 32 31 34 32 29 36 40 39 40 40 37 35 32 29 28 25 24 23 24 27 27 25 26 27 26 26 27 28 27 27 29 31 30 30 29 29 31 31 30 31 31 28 23 21 22 24 29 30 25 25 33 37 36 36 34 33 33 32 32 32 31
22 22 23 24 25 26 27 28 29 29 28 27 27 26 26 26 25 25 27 27 28 30 31 31 30 28 33 34 29 33 38 38 41 43 40 38 35 31 29 27 26 25 23 24 25 25 25 27 26 24 21 20 23 25 27 28 28 28 28 27 29 32 32 31 31 29 26 22 20 21 25 29 25 22 29 36 37 36 31 30 32 33 34 33 32
21 23 24 24 24 25 26 26 26 27 28 27 27 27 26 26 25 25 25 26 27 30 30 30 30 30 32 33 29 30 37 40 44 46 43 41 38 34 30 28 27 27 25 23 23 23 24 25 25 23 21 19 21 24 25 27 28 29 30 29 29 31 31 32 32 31 26 22 21 21 22 24 23 22 27 33 36 36 32 28 28 30 33 34 35
21 23 24 23 24 24 23 24 25 26 26 26 27 28 28 27 27 26 26 25 25 28 28 28 30 32 32 31 29 29 34 41 46 47 46 44 41 36 32 29 27 27 27 25 22 22 23 24 24 23 22 22 22 22 25 27 28 28 30 29 28 28 30 31 31 30 27 22 21 22 21 21 21 21 22 25 27 30 33 32 30 30 32 34 35
23 24 24 24 24 25 24 24 26 26 26 27 27 27 27 28 28 28 27 27 26 26 26 26 29 32 32 31 30 29 34 40 44 45 45 44 41 36 32 29 26 25 26 26 23 21 22 23 24 23 22 23 24 24 25 27 28 28 28 29 29 29 30 30 29 28 27 24 22 23 22 22 23 23 22 24 27 28 31 32 31 33 34 33 33
26 26 27 26 25 25 26 26 26 25 25 27 27 27 26 26 27 28 28 28 28 27 27 27 27 30 32 31 29 29 35 42 45 46 46 44 40 35 31 29 26 24 23 23 23 21 21 21 22 21 21 22 25 26 27 28 29 30 31 30 31 31 30 29 27 27 27 25 24 25 21 19 24 26 27 31 33 30 30 30 29 30 31 27 26
26 26 27 26 25 24 25 26 27 26 25 25 26 27 27 25 25 26 28 29 28 28 29 28 27 28 31 31 28 28 35 43 46 48 49 47 41 35 32 30 28 25 23 21 22 21 21 21 21 21 22 23 25 26 28 30 30 31 33 33 34 33 32 30 29 28 25 23 25 27 23 20 26 29 29 33 33 29 30 33 31 28 28 24 19
26 27 26 26 27 26 24 25 27 28 27 25 25 26 27 27 25 25 27 29 28 28 29 28 27 28 29 31 30 29 34 42 47 48 50 49 44 37 33 32 29 27 25 23 23 23 22 22 22 21 21 22 24 25 27 30 30 31 33 35 35 34 34 33 32 31 28 25 24 26 26 26 28 30 29 31 32 29 29 32 33 30 29 27 23
25 26 25 26 28 28 27 26 28 30 31 28 26 26 26 27 26 24 25 27 27 27 29 28 28 28 29 31 31 30 34 41 45 47 49 50 46 39 35 32 30 28 27 26 26 25 24 24 24 22 20 20 21 23 26 28 30 31 32 34 34 33 33 35 35 35 34 33 30 29 32 32 30 32 34 34 32 29 27 29 33 33 31 31 31
24 26 26 27 27 28 29 28 28 31 32 31 29 29 28 28 27 24 23 26 28 28 28 29 29 29 29 30 31 30 34 40 44 45 48 50 46 40 36 34 32 32 30 28 28 28 26 25 23 22 21 20 19 20 23 26 28 29 29 31 34 34 33 33 36 36 36 36 32 31 34 36 34 35 37 36 31 26 27 31 34 34 35 37 37
23 25 27 27 26 27 27 27 27 29 32 32 31 31 31 30 29 26 23 25 28 28 27 28 29 30 30 31 31 31 34 39 42 43 46 48 45 40 37 35 34 36 35 31 29 30 29 28 24 20 18 18 18 18 19 22 26 27 28 29 31 33 33 32 35 36 35 34 33 33 34 35 36 36 34 35 33 27 25 33 39 39 37 35 33
21 24 26 26 24 24 24 23 24 28 31 33 32 32 32 31 31 29 25 24 27 30 28 28 29 30 30 31 32 32 35 39 42 42 43 45 44 40 37 34 32 35 36 34 32 32 31 31 29 25 19 14 14 16 17 20 22 23 25 27 29 30 31 31 31 33 35 34 35 35 34 33 34 35 32 32 34 27 18 22 32 36 33 25 21
21 22 24 24 23 23 22 21 22 27 30 32 33 32 32 32 32 31 29 26 27 30 29 28 29 29 29 30 32 32 35 39 42 43 43 44 42 39 39 36 31 32 34 34 34 34 32 31 32 30 26 19 14 13 15 18 21 21 21 24 27 28 28 28 27 29 33 34 34 34 33 33 34 35 34 33 34 29 19 16 21 27 27 20 13
20 19 20 22 22 22 23 21 21 25 30 31 31 31 31 31 31 30 30 29 27 27 28 28 29 29 29 29 30 32 34 38 41 43 43 44 41 38 37 36 33 32 33 34 35 35 33 32 33 33 30 26 20 13 11 13 19 21 21 21 22 24 26 27 28 29 30 31 31 30 31 32 32 32 35 36 36 34 27 21 21 22 22 19 14
18 18 18 20 21 21 22 22 21 24 29 30 28 28 28 28 29 28 28 28 27 25 26 27 28 28 28 29 30 31 33 37 40 41 42 44 42 39 37 35 33 33 33 33 35 36 36 36 36 33 31 29 24 16 11 10 13 18 20 18 17 21 26 28 28 31 31 30 29 30 30 31 29 29 30 32 35 36 34 30 27 23 21 21 20
17 16 16 19 21 21 22 22 21 22 26 29 27 25 25 25 26 27 27 26 26 25 25 27 28 27 27 28 30 31 33 36 39 40 40 42 43 41 39 35 32 31 32 32 33 36 37 38 38 35 31 29 26 20 13 8 9 13 16 17 18 21 26 27 27 28 28 27 27 28 28 27 26 27 29 29 30 34 36 34 32 30 26 23 22
15 15 15 17 19 21 22 23 22 21 23 26 26 24 23 23 23 24 26 27 27 26 26 27 27 27 28 28 29 31 33 35 37 38 38 40 41 41 41 37 32 29 30 31 32 33 35 37 37 35 31 29 28 24 17 10 7 9 13 15 17 19 22 25 25 22 21 22 23 23 23 22 21 23 26 27 27 29 31 31 32 33 32 27 25
14 14 16 16 16 19 21 22 21 20 20 23 26 25 23 22 22 22 24 26 27 27 27 27 26 27 29 29 29 31 33 35 37 37 36 37 39 39 40 38 33 29 28 30 32 32 33 34 35 34 31 29 29 27 22 16 9 6 9 13 15 16 18 20 18 15 15 17 19 18 18 19 22 23 24 24 23 23 25 26 27 29 31 28 26
15 16 17 16 15 16 19 21 21 19 17 20 23 25 24 24 23 22 23 25 27 27 28 28 26 26 28 29 29 31 33 35 37 37 36 35 36 37 38 38 37 32 29 29 31 32 32 33 34 33 32 31 31 30 27 24 20 14 5 9 13 15 17 17 16 17 20 22 21 21 20 20 23 23 23 23 22 21 22 23 24 25 24 21 20
15 16 17 17 15 14 17 20 21 19 17 18 20 22 24 24 24 24 23 24 27 27 27 28 27 25 26 28 29 31 33 35 37 37 35 34 34 35 36 37 38 35 32 30 30 31 32 32 33 33 33 34 34 33 33 31 29 25 16 6 9 13 16 19 21 23 24 25 24 24 22 21 22 23 23 24 23 21 21 22 22 22 22 21 21
14 15 14 15 16 14 15 17 20 19 18 18 17 18 22 23 23 24 24 25 26 27 27 28 27 25 25 26 28 31 33 35 37 37 36 33 33 33 34 35 37 36 34 32 31 31 31 32 33 34 35 37 37 37 38 37 35 33 30 24 19 17 17 20 24 26 25 23 24 26 25 24 24 25 26 27 27 26 26 27 27 27 27 27 26
14 15 14 13 15 15 13 13 16 17 17 17 16 15 18 21 22 23 24 25 26 26 27 27 26 26 25 25 27 30 33 34 35 37 36 32 30 31 32 33 35 36 35 33 32 32 33 33 34 35 36 37 39 39 40 41 40 40 39 37 33 29 26 22 21 23 24 22 23 25 25 27 27 27 27 29 29 28 29 31 32 32 32 33 33
13 13 14 13 14 14 12 11 13 14 14 15 15 14 15 18 20 21 22 24 25 26 27 27 26 26 26 26 27 29 32 33 34 36 37 32 27 27 30 32 34 36 37 35 33 32 34 35 36 37 37 38 39 40 41 42 43 43 43 42 41 38 35 31 27 25 24 24 25 25 25 26 27 27 28 29 27 25 26 29 31 31 32 36 36
13 13 14 13 14 15 12 10 11 12 12 12 13 13 14 16 18 19 20 23 25 26 27 27 25 24 25 27 29 29 30 32 33 34 36 31 24 24 27 29 31 34 36 36 34 33 34 37 39 40 40 40 40 40 41 41 41 42 41 41 41 41 40 37 34 30 27 26 27 26 25 25 26 27 28 29 27 24 24 27 28 27 30 35 34
10 12 14 14 13 14 14 12 11 13 12 10 10 11 12 14 16 16 17 19 23 25 27 27 25 24 25 28 30 29 29 32 32 31 32 28 21 21 25 26 27 30 33 35 35 35 35 36 37 37 37 37 37 37 37 37 38 39 39 38 38 40 41 40 38 35 33 32 31 29 28 26 26 27 28 29 28 26 25 26 26 25 28 32 30
10 11 14 16 13 12 13 14 14 14 13 10 9 10 10 11 13 15 15 15 18 22 25 26 26 26 26 28 30 28 28 30 30 29 30 28 22 20 22 24 25 26 30 34 35 34 33 33 32 32 32 32 33 33 33 33 34 34 35 36 36 36 36 36 35 34 35 36 35 34 32 31 28 28 28 29 30 30 29 28 28 27 28 29 27
12 12 13 15 15 12 11 13 14 14 14 13 11 11 11 9 9 12 13 12 13 18 23 26 26 27 28 29 29 29 29 29 29 29 30 29 27 24 23 24 24 25 28 32 33 31 31 30 29 30 30 29 30 30 30 31 32 31 32 33 34 34 33 31 29 28 29 31 33 33 34 33 32 30 29 29 30 32 32 30 29 29 28 27 26
11 12 12 13 16 15 12 13 14 14 14 14 13 14 14 12 10 10 12 12 11 13 19 25 26 26 27 27 27 30 31 30 30 30 29 29 29 28 25 25 25 24 26 30 30 28 28 28 27 28 28 28 28 28 29 30 30 30 30 31 31 32 31 30 29 28 28 28 28 29 29 28 28 28 27 27 28 28 28 28 27 27 27 26 25
12 14 13 11 14 15 12 11 12 13 14 13 12 14 16 15 13 12 13 13 11 9 14 22 25 24 25 24 23 27 31 30 29 29 28 28 28 28 27 26 25 24 26 28 27 25 25 26 26 27 27 26 26 27 28 29 29 30 30 30 30 30 29 29 30 30 29 28 27 27 26 25 24 24 23 23 23 23 22 22 22 23 23 23 22
12 15 15 11 13 14 12 10 10 13 15 14 12 14 16 16 14 15 16 16 15 11 12 18 23 23 24 22 20 24 29 29 28 28 28 28 29 28 28 29 28 26 25 25 24 23 23 25 26 26 26 26 26 26 27 27 28 30 30 29 29 29 30 30 30 29 28 27 26 25 24 23 23 22 21 20 20 19 18 17 17 18 20 20 20
10 13 12 10 11 12 11 11 12 13 15 15 14 15 16 15 13 14 16 16 15 13 12 16 20 22 23 20 17 20 26 28 27 26 27 29 30 30 30 31 30 29 27 25 24 23 22 22 23 24 25 25 25 25 25 26 26 27 28 28 28 28 28 29 28 27 26 25 24 22 22 22 21 20 19 19 18 18 17 16 16 17 17 17 19
8 11 9 7 9 9 8 9 11 12 13 15 14 14 15 15 13 12 13 14 13 11 11 14 18 21 22 19 16 17 22 26 26 25 25 27 29 29 30 29 28 28 28 27 24 23 21 20 20 20 22 23 23 23 23 23 24 24 23 23 24 25 25 25 25 25 24 23 22 21 20 20 19 18 18 18 17 16 15 15 16 16 16 17 19
6 11 10 6 6 8 9 8 10 11 11 12 12 12 12 13 13 11 10 11 12 10 9 12 17 20 21 19 16 15 18 22 24 24 23 24 26 28 28 27 26 26 26 27 26 25 24 22 19 18 18 20 20 21 20 20 20 21 20 19 19 20 21 21 21 21 21 20 20 19 19 18 17 16 16 15 14 14 15 14 14 14 15 18 20
5 10 11 7 5 8 10 7 8 10 9 8 8 9 9 10 12 12 11 10 10 9 8 10 15 18 19 18 16 15 16 18 22 24 23 23 24 25 26 25 25 25 24 25 25 25 25 24 22 20 19 18 17 18 18 17 17 17 17 19 19 18 18 18 17 17 17 16 16 16 16 16 16 15 15 14 13 13 14 14 15 15 17 19 19
2 4 6 6 5 7 9 6 5 7 7 6 5 6 8 8 10 12 12 9 8 8 8 9 11 15 16 16 15 15 16 18 20 22 22 21 21 22 22 23 23 23 23 24 25 24 24 23 23 23 24 23 20 16 14 14 17 17 16 17 18 18 18 18 18 16 15 14 14 14 14 13 13 13 13 14 13 13 13 14 15 15 17 19 20
2 2 5 7 8 9 8 5 5 7 8 6 2 4 7 8 8 11 12 10 7 7 7 8 9 12 14 15 14 13 15 16 17 18 19 19 19 20 20 20 20 21 21 23 24 23 22 21 21 23 25 26 26 21 14 10 12 16 17 16 16 17 18 18 18 17 15 14 14 14 14 13 12 11 12 11 11 10 10 12 14 15 18 20 20
3 3 5 7 9 9 6 7 9 9 9 7 5 3 7 8 9 10 11 10 9 7 7 7 8 11 12 12 12 12 13 14 14 15 16 17 17 18 18 19 18 18 19 21 21 21 21 20 21 23 24 24 26 26 20 13 10 12 14 15 16 17 18 19 19 17 15 13 13 13 14 14 14 14 14 13 12 9 7 8 11 14 17 19 19
1 3 6 7 8 8 6 9 9 8 7 11 11 6 7 6 8 9 10 11 10 8 6 6 8 9 10 10 10 11 13 13 12 11 13 15 16 17 18 18 17 16 16 17 18 19 18 18 18 20 22 23 24 25 22 19 16 14 14 15 17 18 19 21 21 19 16 13 12 12 13 14 14 14 14 15 16 15 12 11 11 13 15 16 15
2 3 7 7 6 6 6 7 8 6 7 12 11 6 6 5 8 9 9 10 9 6 5 5 6 8 9 8 7 9 12 12 11 9 10 13 15 15 16 17 16 15 15 15 15 15 16 16 16 17 19 21 22 23 20 17 17 17 15 15 16 17 17 18 21 21 19 15 14 13 14 14 15 14 14 15 16 17 17 16 15 14 13 13 13
3 4 7 5 5 6 5 5 6 5 7 10 8 4 4 6 9 9 10 11 9 7 5 4 5 6 7 6 6 7 9 11 10 8 8 11 13 14 15 16 14 13 14 16 15 13 13 14 15 16 17 18 20 20 17 14 14 15 14 14 15 16 16 16 17 19 18 18 17 16 15 15 16 15 14 14 15 15 15 15 14 13 12 11 10
2 3 5 3 3 5 5 3 4 6 8 8 8 7 6 7 8 9 10 10 10 9 4 2 4 6 5 5 6 7 7 9 9 7 6 8 11 13 15 15 13 11 13 15 15 13 12 13 13 14 15 17 18 17 15 13 12 13 13 13 14 15 15 15 15 15 15 15 16 15 15 14 14 14 13 13 13 13 13 12 11 12 11 10 8
3 2 4 3 2 4 5 3 3 6 8 8 9 9 8 7 8 9 9 9 11 12 6 3 4 5 5 5 5 6 7 7 8 7 6 7 9 12 14 14 12 10 11 14 14 14 14 14 13 13 14 15 16 15 14 13 13 13 13 13 12 12 12 11 11 13 14 14 13 12 13 13 12 11 11 11 11 11 11 11 11 10 8 7 6
3 2 4 2 1 4 6 5 2 4 7 9 9 10 9 9 9 9 9 9 11 12 9 4 3 4 4 5 5 5 7 7 6 6 7 7 8 10 12 12 11 10 11 12 13 13 13 14 14 14 14 14 14 13 12 13 14 14 14 13 12 11 10 9 8 10 12 13 12 11 11 12 11 10 9 9 9 9 9 9 10 10 8 5 3
2 1 3 1 2 3 5 5 2 5 6 7 8 10 10 10 10 10 11 11 11 10 10 8 4 3 4 4 3 4 6 5 3 4 6 6 7 8 9 10 11 10 10 11 10 10 11 13 14 13 12 12 12 12 12 13 15 16 15 13 11 10 9 8 7 7 8 10 12 12 12 11 10 9 8 9 9 9 9 8 8 8 9 7 3
3 3 2 2 3 6 7 3 3 5 4 4 7 9 9 8 9 10 10 10 11 9 9 9 7 4 4 4 2 4 7 6 3 3 4 5 5 6 8 9 9 9 9 9 9 9 10 12 12 11 9 9 10 11 12 14 16 15 13 10 9 8 8 7 7 7 6 7 9 10 11 11 10 8 8 9 9 8 8 7 5 5 7 8 5
4 6 4 3 6 8 5 1 3 2 1 3 5 7 6 5 6 7 6 7 8 7 7 7 6 6 6 5 2 3 6 6 3 3 3 5 5 6 6 7 8 8 9 8 8 8 10 10 10 8 7 7 8 9 13 15 16 14 12 9 8 7 7 6 6 6 6 6 7 8 9 11 11 10 8 8 8 7 7 7 5 4 5 6 6
7 8 7 4 4 5 2 1 1 2 0 3 4 3 2 2 2 3 3 3 4 5 5 5 6 7 7 6 4 3 4 5 4 3 3 5 6 6 5 5 6 8 8 7 7 8 8 9 9 8 7 6 7 10 14 16 15 13 12 11 9 8 8 6 6 6 5 5 6 6 7 9 11 11 8 7 7 9 9 7 5 4 5 5 6
Wind_Direction
50 47 45 42 41 38 36 36 36 35 33 32 34 34 30 28 26 24 21 17 14 11 7 6 4 3 5 8 8 5 4 4 358 349 340 331 322 316 312 303 292 286 287 284 278 268 262 262 260 253 247 240 234 227 221 217 216 217 218 215 214 216 213 210 213 218 218 218 216 218 216 207 201 200 199 199 197 198 202 205 206 204 204 206 207
51 46 44 43 41 39 37 37 36 35 34 34 36 35 31 29 28 26 24 21 17 14 13 12 9 10 13 13 9 6 7 9 8 4 357 347 338 329 321 311 299 291 291 289 281 271 267 267 264 257 249 240 232 223 217 215 214 217 218 213 212 216 215 211 213 216 218 218 216 214 211 205 201 198 197 198 194 194 199 202 203 205 206 207 207
50 46 47 45 42 41 39 37 36 36 35 35 35 34 32 31 30 28 26 23 20 19 19 18 16 16 18 17 10 7 6 6 5 4 0 355 349 341 332 320 308 298 293 291 285 278 273 268 264 257 246 236 228 220 215 215 215 215 217 216 215 216 214 211 212 214 214 214 214 211 206 204 205 200 197 198 195 193 197 202 203 205 207 208 209
50 46 48 47 43 42 40 37 36 36 36 35 34 32 31 32 32 29 28 26 23 22 22 22 22 21 20 18 13 10 11 9 5 3 0 357 352 345 338 328 317 306 297 294 290 284 277 269 265 259 244 230 223 220 217 214 213 213 214 216 216 215 211 210 213 214 213 212 213 213 206 202 205 202 196 195 194 194 197 201 204 204 206 208 210
49 46 49 48 44 42 40 37 36 35 34 33 31 31 30 31 32 30 28 27 24 23 22 21 22 21 19 19 13 10 14 12 7 4 0 356 352 345 339 332 324 316 306 301 296 289 281 274 273 272 254 230 218 222 219 213 213 213 212 212 215 215 210 208 209 211 212 211 210 211 205 199 197 195 193 192 190 191 194 200 203 203 204 206 208
48 49 50 49 45 43 41 40 39 36 34 32 30 29 28 28 30 29 28 27 24 22 22 21 21 18 16 18 13 9 12 12 7 5 1 356 352 345 339 332 326 321 312 306 302 292 283 278 277 278 267 238 221 226 228 221 220 219 217 218 219 217 215 213 209 208 210 211 210 211 205 199 194 190 195 195 189 188 190 195 200 202 202 204 205
50 53 51 49 47 45 44 44 42 40 37 35 32 29 28 27 27 26 25 27 26 23 23 23 22 18 15 16 14 8 9 8 7 5 2 357 352 345 340 334 327 323 316 310 305 297 286 280 279 277 269 251 233 231 232 230 227 225 224 224 219 212 212 215 212 208 207 204 206 214 211 201 193 187 195 199 193 189 188 187 193 199 202 204 205
52 53 50 48 47 44 46 47 45 43 41 38 35 32 30 29 28 26 24 24 24 23 23 23 21 19 17 17 15 10 8 7 6 4 2 358 353 346 341 335 329 324 318 314 307 298 291 284 280 278 272 263 251 240 236 233 229 226 224 222 218 209 203 205 206 205 206 201 199 209 210 203 195 185 189 198 194 189 189 187 190 195 199 205 207
51 49 45 46 46 44 46 46 42 42 42 40 36 33 32 31 30 29 26 25 24 22 23 22 20 19 18 17 15 13 10 6 4 3 2 358 353 349 344 338 332 325 321 320 313 303 298 292 284 280 276 269 261 250 243 238 233 230 229 225 221 213 204 201 200 197 200 203 201 201 199 196 194 183 178 186 191 193 192 190 192 195 196 201 205
50 48 45 43 44 46 47 44 40 41 43 40 38 34 32 31 31 31 29 27 27 25 23 22 21 19 17 15 14 13 11 6 3 3 4 2 358 354 351 346 339 332 326 322 318 310 303 298 290 283 279 273 265 257 249 244 240 239 240 233 223 214 205 202 200 195 195 198 197 195 192 190 190 186 182 184 190 197 196 192 194 194 193 196 201
52 49 46 41 41 46 48 45 43 42 41 40 39 37 34 33 32 32 30 29 28 27 24 23 22 20 18 16 15 13 10 7 5 5 6 7 5 2 359 355 350 344 335 323 318 316 310 304 296 289 285 279 271 264 255 250 248 246 243 236 228 219 210 204 200 198 198 198 196 194 192 192 192 191 188 186 191 200 200 197 197 192 188 192 196
58 53 47 43 42 43 43 44 45 42 37 35 35 35 36 35 33 32 32 30 29 27 24 22 21 20 18 17 16 13 10 8 8 7 7 8 8 7 5 2 357 350 341 332 327 324 320 314 303 293 288 281 274 267 258 251 250 246 240 236 233 227 222 216 209 203 201 203 203 197 196 199 197 194 191 188 194 206 206 200 199 195 190 193 195
64 58 51 47 45 42 39 42 46 42 36 33 31 29 31 32 32 32 33 32 31 29 24 21 20 19 17 15 14 11 9 9 10 9 7 8 10 10 8 5 0 354 350 347 343 337 332 327 313 298 289 281 277 273 263 253 248 244 241 239 238 234 228 224 222 217 208 204 205 202 201 204 203 200 198 192 192 204 210 206 202 199 197 197 199
67 63 57 52 49 45 43 47 47 42 38 35 33 30 27 27 27 29 33 34 33 29 23 21 21 19 17 14 12 11 9 10 13 12 9 9 11 11 9 8 6 3 0 357 354 350 348 345 330 309 296 288 285 280 268 256 249 245 243 241 239 238 235 227 224 223 215 206 206 208 208 210 212 211 206 199 194 200 211 212 206 201 200 203 204
68 68 63 58 54 51 50 52 49 44 41 38 36 33 29 26 25 26 34 38 34 28 24 23 22 20 18 15 13 12 11 11 15 15 12 11 12 11 10 9 7 7 6 3 0 359 359 358 351 334 316 302 294 287 273 260 253 247 244 242 240 241 241 235 226 222 219 214 215 219 218 219 222 220 211 205 204 208 217 217 211 204 201 202 204
70 73 68 62 58 55 54 55 53 49 44 40 38 35 31 29 27 28 32 36 32 28 26 23 21 19 18 17 15 14 13 13 16 17 15 13 13 12 11 9 7 7 8 7 4 4 4 2 359 353 343 326 305 289 275 265 257 249 245 245 244 241 239 237 231 224 223 223 225 227 228 229 230 226 218 211 207 207 212 211 205 199 193 189 185
70 75 72 65 60 56 53 55 59 55 48 43 41 37 34 33 32 31 30 29 28 28 27 24 21 19 17 16 15 14 13 14 16 17 17 16 15 13 12 11 9 7 7 8 7 7 8 6 4 1 354 344 324 293 273 261 254 250 249 246 242 236 233 233 228 222 222 224 228 231 231 232 230 226 221 213 205 202 198 184 183 184 181 176 164
69 75 74 66 62 60 56 57 63 59 50 46 44 41 39 38 36 35 32 29 27 27 25 23 21 19 18 16 14 13 12 13 16 17 18 18 17 15 13 13 11 8 7 9 9 9 9 9 11 10 3 353 339 314 293 272 254 248 250 246 234 228 231 231 225 220 219 220 224 227 228 228 227 224 219 212 207 207 207 194 184 180 175 170 157
72 78 79 70 66 64 59 60 67 62 52 49 48 44 44 43 40 39 37 34 32 30 25 21 19 19 18 16 15 14 12 12 16 18 18 18 18 17 16 13 11 10 9 8 10 11 12 13 15 14 9 2 351 333 316 299 273 257 253 244 229 226 234 235 228 224 221 217 216 218 219 220 219 216 212 210 209 212 214 206 195 191 190 179 162
71 79 85 76 71 68 62 63 70 65 54 52 51 48 46 45 43 41 38 35 33 30 25 21 18 17 16 15 15 15 12 12 15 18 19 19 18 18 17 14 9 9 10 9 10 11 12 14 15 15 13 11 5 353 336 313 287 269 258 248 241 240 239 235 230 226 222 218 213 211 210 210 210 208 206 206 208 212 215 212 203 202 207 193 167
68 75 85 83 77 72 67 67 69 65 56 52 52 51 48 44 42 40 38 35 31 27 23 19 18 17 15 13 13 14 12 12 14 17 19 20 20 19 18 15 12 9 10 11 12 13 13 14 16 17 16 16 16 10 360 341 300 270 259 251 252 252 241 229 225 223 218 212 204 198 196 191 187 189 192 195 201 206 212 215 212 213 217 206 179
68 73 81 86 82 75 70 67 65 63 58 51 50 52 50 45 41 39 37 34 31 28 23 19 17 16 14 14 13 12 11 12 15 17 19 21 22 21 19 17 16 14 11 11 12 13 15 17 20 22 22 22 23 23 19 12 0 315 265 244 243 246 233 216 206 193 180 174 164 154 153 152 149 152 161 169 177 187 196 204 208 210 215 214 197
65 69 71 71 75 78 74 66 61 63 60 50 47 49 49 48 45 42 39 35 32 29 25 20 17 15 14 14 14 12 11 12 15 17 17 19 22 24 21 19 19 18 16 12 11 12 16 21 25 28 30 30 30 31 31 30 29 21 334 237 224 222 211 188 163 147 139 133 124 113 113 121 128 132 140 146 153 163 172 179 187 190 190 190 185
59 65 66 62 62 77 80 66 59 63 61 49 45 46 46 48 49 46 45 40 35 31 27 22 19 16 14 13 13 11 10 12 14 16 15 16 19 22 23 21 19 20 19 16 13 14 17 23 30 34 36 36 37 38 38 39 41 41 43 84 156 172 173 161 147 138 130 122 115 109 108 114 118 118 121 127 133 142 147 149 155 159 154 146 143
52 49 58 62 59 71 83 68 58 62 60 50 47 45 42 46 48 47 47 45 40 35 30 25 22 19 15 13 11 10 9 10 12 13 12 13 16 20 23 24 21 20 20 19 18 19 22 28 34 39 40 40 40 41 40 41 45 47 49 61 83 104 120 131 134 131 122 115 112 110 111 114 115 115 117 119 122 126 129 128 127 130 131 128 124
61 42 41 51 55 66 84 73 56 55 55 52 53 48 42 45 48 48 49 48 45 40 34 30 26 21 17 15 12 9 8 6 7 7 8 11 14 17 21 25 24 21 20 22 24 24 25 29 34 38 41 42 42 42 41 43 48 49 49 52 59 67 76 83 95 103 103 100 101 103 107 113 115 115 116 115 113 115 119 121 118 118 122 120 112
75 53 39 42 51 62 76 72 56 49 49 55 59 54 47 46 47 49 51 50 49 45 39 34 29 23 19 16 13 10 7 4 4 4 4 7 13 19 23 26 26 24 20 21 24 25 26 30 34 37 41 43 44 44 43 45 48 48 48 49 51 56 62 66 68 74 81 87 92 95 103 111 114 113 112 111 108 109 114 118 115 112 115 115 109
57 50 39 38 48 57 62 64 58 48 43 50 57 57 53 48 48 53 54 51 51 49 44 39 33 27 22 19 15 10 6 6 6 4 4 7 15 23 26 27 28 27 23 20 23 27 29 32 34 35 38 39 40 41 42 42 45 47 48 50 52 55 58 61 61 62 66 75 82 86 91 98 102 104 105 104 104 105 108 110 110 111 112 111 107
46 44 30 22 33 49 54 58 57 47 40 44 52 56 57 52 49 53 56 53 52 50 45 41 37 33 30 25 19 12 7 7 8 8 11 16 22 28 30 29 28 29 26 23 25 29 29 30 31 31 32 34 35 35 37 38 41 45 47 50 53 57 58 57 53 52 56 63 68 72 76 80 84 91 96 97 98 101 103 102 102 105 106 105 103
51 38 22 14 18 37 55 62 58 47 42 47 52 53 56 56 50 49 51 51 50 48 44 42 39 37 34 28 22 18 14 12 13 16 22 28 30 29 30 29 28 29 27 26 28 30 28 27 28 28 29 32 33 33 34 36 37 40 44 47 51 55 59 59 57 54 56 58 59 60 64 67 69 75 82 86 90 94 95 95 96 97 97 97 97
55 30 18 15 16 28 54 63 56 45 42 52 63 58 53 57 54 47 44 42 43 44 43 40 38 37 31 24 21 23 23 20 20 22 28 33 36 34 30 29 29 30 30 29 32 33 31 28 27 27 28 31 33 34 36 38 39 39 42 46 49 52 55 59 63 66 66 65 64 64 63 63 63 66 70 76 82 86 89 90 91 91 91 91 92
58 31 20 16 18 30 52 59 52 44 39 49 65 62 53 57 63 52 42 35 34 39 40 37 35 33 28 21 21 26 28 25 24 26 30 34 38 39 36 34 33 34 34 35 36 36 34 31 28 27 27 29 32 35 39 41 42 43 43 44 46 49 52 56 63 69 72 72 73 73 72 71 71 71 72 76 78 82 87 91 93 94 94 94 95
58 33 22 16 19 30 46 57 52 39 32 42 62 59 51 58 69 62 49 39 33 35 39 36 32 29 25 22 23 28 30 28 27 28 29 31 35 38 39 38 37 38 39 40 39 38 36 34 32 30 29 29 32 37 41 43 44 46 47 47 46 48 51 56 62 66 67 69 71 73 74 76 78 78 78 80 82 83 87 91 97 101 103 104 105
50 26 19 24 31 33 39 52 49 35 31 44 61 58 51 58 68 65 53 46 44 49 47 38 32 29 27 24 23 27 30 30 31 31 31 33 35 39 40 39 37 37 39 40 41 40 38 37 37 36 36 37 39 41 43 45 47 48 49 50 51 51 52 54 57 58 61 64 67 69 72 74 76 78 78 78 81 84 86 90 98 103 107 109 107
43 24 22 38 48 43 45 54 51 41 41 50 59 57 50 50 61 65 55 48 53 60 53 39 33 31 31 29 25 23 26 29 31 32 32 34 37 38 38 36 33 31 33 35 39 41 41 42 44 45 45 45 44 44 44 45 45 46 46 48 50 51 50 51 51 52 55 58 61 65 70 72 74 75 74 73 75 78 83 91 101 107 113 114 109
47 34 34 52 55 39 34 46 49 46 49 53 55 55 47 42 50 60 53 48 56 63 51 36 31 31 33 35 31 25 24 27 30 30 31 34 36 36 35 33 31 30 31 32 35 39 42 43 43 42 42 42 42 42 43 42 40 39 39 40 43 45 47 48 50 51 53 56 59 63 65 66 68 70 71 72 73 75 79 87 94 99 109 115 113
66 47 45 54 51 27 17 35 55 55 54 54 50 46 46 46 49 50 45 48 58 60 45 32 28 28 32 36 34 30 27 26 28 30 31 33 36 37 35 32 31 32 32 32 33 34 35 36 34 30 29 31 34 36 38 40 39 37 37 38 40 43 45 47 49 51 53 55 58 60 60 59 60 63 66 68 69 71 77 83 87 94 108 116 115
79 59 46 36 31 13 3 22 66 66 55 54 51 45 49 57 54 42 39 52 61 53 39 34 31 29 31 32 31 32 31 28 26 28 30 32 35 37 36 33 32 32 32 32 32 31 30 31 32 30 26 23 23 27 32 37 40 42 44 48 48 46 47 48 48 49 52 55 57 59 60 60 59 60 64 68 69 71 75 79 84 97 115 122 117
65 55 30 14 6 353 350 9 73 66 41 43 60 56 57 61 51 38 39 54 63 48 38 36 33 31 31 30 28 30 33 31 27 26 28 31 35 36 36 34 32 32 31 31 31 30 28 27 29 32 32 29 26 25 28 35 44 49 50 49 48 47 48 48 48 49 54 59 62 62 61 61 59 60 66 72 76 78 79 76 79 97 119 125 121
42 356 339 340 336 335 346 27 58 38 27 29 51 78 72 63 47 42 49 58 58 44 38 36 32 32 31 29 26 29 33 33 29 26 28 31 32 33 33 32 32 32 30 30 31 30 27 25 24 26 29 29 31 32 32 31 41 48 48 44 43 46 47 45 43 46 52 59 63 61 57 58 59 58 58 62 67 74 82 81 83 98 117 125 124
37 335 326 337 342 346 18 60 48 30 28 21 13 80 94 71 52 55 57 50 40 37 45 45 36 30 28 28 30 34 34 30 26 25 30 34 33 33 31 28 29 31 32 31 32 31 29 26 25 25 26 27 28 32 36 37 35 39 43 43 41 42 44 42 38 37 40 44 47 48 50 56 61 62 60 59 58 62 75 86 93 106 118 124 127
27 332 330 342 354 5 41 56 40 26 15 8 16 67 107 78 62 67 54 36 31 41 53 52 39 26 19 22 32 38 34 28 22 22 29 35 36 36 33 27 23 27 30 30 31 31 30 29 26 23 24 26 24 25 34 45 50 50 54 55 52 48 45 43 41 41 39 37 38 44 50 53 56 59 63 65 64 64 71 85 98 110 117 119 121
204 317 331 341 357 8 29 40 33 21 5 9 25 86 128 84 69 67 45 31 35 45 47 43 36 28 23 22 30 33 30 26 22 19 26 33 35 34 32 25 22 26 30 28 26 26 28 30 28 23 22 23 21 20 28 45 54 56 58 61 58 53 47 43 43 46 48 46 46 51 56 57 56 59 64 65 61 61 68 82 93 99 102 105 106
221 311 335 346 2 2 9 31 35 20 4 10 26 76 113 86 74 59 42 38 37 35 37 44 41 39 38 33 28 26 25 25 23 18 26 36 36 32 28 22 17 21 27 26 23 23 25 26 27 25 24 24 22 21 27 40 48 49 50 52 53 53 53 51 50 52 54 55 54 55 58 60 62 64 65 62 57 56 62 72 81 83 82 85 91
201 344 349 349 346 337 337 17 35 6 356 11 32 45 64 83 73 48 43 45 34 22 33 104 76 57 54 41 28 23 19 21 22 22 29 38 36 32 29 24 16 14 20 22 23 26 27 25 21 18 20 26 28 29 34 44 46 45 45 46 49 54 55 53 51 52 55 57 57 56 55 55 55 56 57 55 53 52 51 52 63 73 70 66 76
164 328 324 306 309 321 320 343 31 16 17 39 47 39 46 69 58 38 44 53 36 25 35 108 109 83 67 47 35 27 19 20 27 33 38 38 31 27 28 26 20 15 16 21 27 32 31 28 24 18 18 25 31 33 37 40 41 42 41 38 39 44 44 39 39 44 49 55 61 60 55 51 50 49 45 41 41 44 42 39 46 57 58 56 72
155 319 323 311 249 289 305 313 9 56 64 66 50 34 43 57 47 37 50 56 38 28 32 55 109 112 78 47 35 30 24 23 29 33 31 26 22 23 24 23 20 18 16 17 23 31 30 26 25 26 25 24 25 27 29 28 25 22 18 15 13 14 15 16 22 32 42 52 62 63 55 49 47 44 38 30 26 28 31 32 36 41 42 49 88
169 302 332 343 196 252 304 326 46 87 85 70 52 49 56 55 45 49 57 49 33 28 32 38 62 104 76 50 45 34 20 9 1 12 17 13 12 15 17 15 15 17 16 13 18 26 24 17 18 25 27 21 17 18 19 14 8 2 1 2 2 2 5 11 16 22 33 48 58 61 56 47 40 37 35 29 21 20 25 26 28 33 37 42 63
204 207 225 259 253 271 294 313 94 98 85 71 71 72 70 57 49 55 53 36 26 30 36 41 52 59 39 35 54 34 13 355 327 345 15 19 9 3 5 9 12 12 9 9 16 24 20 14 16 21 20 12 11 14 11 3 358 356 359 6 10 8 9 14 18 20 27 41 51 55 52 42 32 22 14 11 10 15 24 24 13 11 24 34 46
218 203 202 255 276 278 283 250 124 101 90 122 107 90 81 70 55 46 31 21 23 24 23 32 48 44 27 21 29 19 10 1 333 325 6 19 10 359 359 5 7 5 0 359 6 15 16 14 17 18 10 2 5 9 7 2 359 1 9 17 16 10 9 11 12 16 24 34 40 41 38 32 24 11 0 5 13 12 7 1 352 344 358 15 26
247 232 221 233 262 268 282 32 341 324 56 144 147 131 113 111 61 21 2 2 22 26 30 49 59 46 28 16 6 2 18 21 6 343 350 5 8 10 12 3 359 4 11 15 20 21 18 13 10 8 4 4 9 12 14 13 11 12 18 22 17 10 11 12 10 14 23 33 38 39 37 29 17 6 2 16 23 10 355 345 339 342 350 355 359